This demonstration page uses our WeatherBlox Daily Observations layout. Learn more.

Left ArrowRight Arrow

Hourly Observations for June 28, 2021

Temp ( °F °C ) Dew Point ( °F °C ) Humidity (%) Winds ( mph kmh ) Pressure ( in mb ) Visibility ( mi km ) Precip ( " mm )
12:53 am 00:53 Cloudy 72 22.2 64 17.8 76 76 ENE 3 6 29.89 1012 10 16 0.00 0.00
1:53 am 01:53 Mostly Cloudy 72 22.2 62 16.7 71 71 ENE 6 9 29.88 1012 10 16 0.00 0.00
2:53 am 02:53 Cloudy 71 21.7 63 17.2 76 76 ENE 8 13 29.87 1012 10 16 0.00 0.00
3:53 am 03:53 Clear 71 21.7 64 17.8 79 79 ENE 8 13 29.87 1011 10 16 0.00 0.00
4:53 am 04:53 Cloudy 70 21.1 65 18.3 84 84 ENE 9 15 29.87 1011 10 16 0.00 0.00
5:05 am 05:05 Cloudy 70 21.1 65 18.3 84 84 ENE 10 17 29.88 1012 10 16 0.00 0.00
5:32 am 05:32 Cloudy 70 21.1 65 18.3 84 84 ENE 8 13 29.87 1011 10 16 0.00 0.00
5:53 am 05:53 Cloudy 70 21.1 66 18.9 87 87 ENE 6 9 29.88 1012 10 16 0.00 0.00
6:18 am 06:18 Cloudy 70 21.1 66 18.9 87 87 ENE 7 11 29.88 1012 10 16 0.00 0.00
6:31 am 06:31 Mostly Cloudy 70 21.1 66 18.9 87 87 ENE 7 11 29.87 1011 10 16 0.00 0.00
6:53 am 06:53 Partly Cloudy 70 21.1 66 18.9 87 87 NE 7 11 29.87 1012 10 16 0.00 0.00
7:15 am 07:15 Cloudy 70 21.1 66 18.9 87 87 ENE 12 19 29.89 1012 10 16 0.00 0.00
7:53 am 07:53 Cloudy 70 21.1 66 18.9 87 87 ENE 9 15 29.88 1012 7 11 0.00 0.00
7:58 am 07:58 Cloudy with Rain 69 20.6 66 18.9 90 90 ENE 8 13 29.89 1012 3 4 0.00 0.00
8:07 am 08:07 Cloudy with Heavy Rain 69 20.6 67 19.4 93 93 ENE 6 9 29.89 1012 2 2 0.00 0.00
8:16 am 08:16 Cloudy with Light Rain 69 20.6 67 19.4 93 93 NE 8 13 29.89 1012 3 5 0.00 0.00
8:53 am 08:53 Mostly Cloudy 69 20.6 67 19.4 93 93 ENE 9 15 29.90 1013 10 16 0.00 0.00
9:04 am 09:04 Mostly Cloudy 70 21.1 67 19.4 90 90 ENE 9 15 29.91 1013 10 16 0.00 0.00
9:22 am 09:22 Cloudy 70 21.1 67 19.4 90 90 ENE 9 15 29.91 1013 10 16 0.00 0.00
9:53 am 09:53 Cloudy 71 21.7 68 20 90 90 E 10 17 29.91 1013 10 16 0.00 0.00
10:35 am 10:35 Cloudy 73 22.8 67 19.4 81 81 E 10 17 29.88 1012 10 16 0.00 0.00
10:53 am 10:53 Cloudy 73 22.8 66 18.9 79 79 E 14 22 29.90 1012 10 16 0.00 0.00
11:53 am 11:53 Cloudy 75 23.9 66 18.9 74 74 E 16 26 29.90 1012 10 16 0.00 0.00
12:03 pm 12:03 Cloudy 76 24.4 67 19.4 74 74 ESE 17 28 29.87 1011 10 16 0.00 0.00
12:53 pm 12:53 Cloudy 76 24.4 66 18.9 72 72 ESE 12 19 29.88 1012 10 16 0.00 0.00
1:08 pm 13:08 Cloudy with Light Rain 74 23.3 66 18.9 76 76 E 14 22 29.86 1011 8 13 0.00 0.00
1:24 pm 13:24 Cloudy with Light Rain 73 22.8 68 20 84 84 ESE 13 20 29.86 1011 9 14 0.00 0.00
1:53 pm 13:53 Mostly Cloudy 76 24.4 68 20 77 77 ESE 12 19 29.87 1012 10 16 0.00 0.00
2:16 pm 14:16 Cloudy 77 25 66 18.9 69 69 ESE 17 28 29.82 1010 10 16 0.00 0.00
2:53 pm 14:53 Mostly Cloudy 76 24.4 69 20.6 79 79 ESE 15 24 29.86 1011 10 16 0.00 0.00
3:53 pm 15:53 Cloudy 77 25 65 18.3 66 66 E 18 30 29.85 1011 10 16 0.00 0.00
4:53 pm 16:53 Mostly Cloudy 78 25.6 65 18.3 64 64 NE 12 19 29.85 1011 10 16 0.00 0.00
5:43 pm 17:43 Cloudy with Thunderstorms 73 22.8 65 18.3 76 76 NNW 9 15 29.82 1010 10 16 0.00 0.00
5:53 pm 17:53 Cloudy with Nearby Thunderstorms 72 22.2 65 18.3 79 79 NNW 13 20 29.85 1011 10 16 0.00 0.00
6:43 pm 18:43 Cloudy with Thunderstorms 71 21.7 65 18.3 81 81 NNW 13 20 29.83 1010 10 16 0.00 0.00
6:53 pm 18:53 Cloudy with Thunderstorms 71 21.7 65 18.3 81 81 NW 15 24 29.85 1011 10 16 0.00 0.00
7:26 pm 19:26 Cloudy with Nearby Thunderstorms 73 22.8 65 18.3 76 76 ENE 8 13 29.84 1011 7 11 0.00 0.00
7:35 pm 19:35 Cloudy with Nearby Thunderstorms 70 21.1 66 18.9 87 87 S 10 17 29.86 1011 3 4 0.00 0.00
7:39 pm 19:39 Cloudy with Strong Thunderstorms 70 21.1 66 18.9 87 87 W 9 15 29.86 1011 3 4 0.00 0.00
7:53 pm 19:53 Cloudy with Strong Thunderstorms 68 20 65 18.3 90 90 W 28 44 29.91 1013 1 2 0.00 0.00
8:00 pm 20:00 Cloudy with Strong Thunderstorms 67 19.4 66 18.9 97 97 NW 12 19 29.91 1013 1 1 0.00 0.00
8:07 pm 20:07 Cloudy with Thunderstorms 69 20.6 66 18.9 90 90 NNW 14 22 29.89 1012 3 4 0.00 0.00
8:14 pm 20:14 Cloudy with Thunderstorms 68 20 65 18.3 90 90 NW 10 17 29.90 1013 5 8 0.00 0.00
8:30 pm 20:30 Cloudy with Nearby Thunderstorms 68 20 66 18.9 93 93 NNW 9 15 29.90 1013 9 14 0.00 0.00
8:37 pm 20:37 Cloudy with Nearby Thunderstorms 68 20 66 18.9 93 93 NNW 7 11 29.90 1013 10 16 0.00 0.00
8:46 pm 20:46 Cloudy with Light Rain 69 20.6 66 18.9 90 90 NNW 8 13 29.90 1013 10 16 0.00 0.00
8:53 pm 20:53 Cloudy with Light Rain 69 20.6 66 18.9 90 90 N 9 15 29.91 1013 10 16 0.00 0.00
9:53 pm 21:53 Partly Cloudy 69 20.6 66 18.9 90 90 N 10 17 29.92 1013 10 16 0.00 0.00
10:53 pm 22:53 Cloudy 69 20.6 67 19.4 93 93 N 12 19 29.93 1013 10 16 0.00 0.00
11:18 pm 23:18 Cloudy 69 20.6 67 19.4 93 93 N 12 19 29.92 1013 10 16 0.00 0.00
11:35 pm 23:35 Cloudy with Nearby Thunderstorms 68 20 67 19.4 96 96 NNE 14 22 29.93 1014 2 3 0.00 0.00
11:37 pm 23:37 Cloudy with Nearby Thunderstorms 68 20 67 19.4 96 96 NNE 16 26 29.93 1014 2 3 0.00 0.00
11:41 pm 23:41 Cloudy with Nearby Thunderstorms 68 20 66 18.9 93 93 NNE 14 22 29.93 1014 3 4 0.00 0.00
11:43 pm 23:43 Cloudy with Nearby Thunderstorms 68 20 66 18.9 93 93 NNE 13 20 29.93 1014 3 5 0.00 0.00
11:53 pm 23:53 Cloudy with Nearby Thunderstorms 68 20 67 19.4 96 96 N 15 24 29.93 1013 8 13 0.00 0.00

Powered by AerisWeather